Location: Ashtead
(51.3000°N, 0.3000°W)
Time: 03:27:24
(UTC+00:00)

CZ-2C R/B - Pass Details

Date: 26 September 2023
Orbit: 784 x 869 km, 98.3° (Epoch: 29 November)

Event Time Altitude Azimuth Distance (km) Brightness Sun altitude
Exits shadow 01:26:57 24° 71° (ENE) 1,594 4.5 -36.0°
Maximum altitude 01:27:41 25° 58° (ENE) 1,566 4.5 -35.9°
Drops below altitude 10° 01:31:52 10° 5° (N) 2,389 5.7 -35.6°
Sets 01:34:35 0° 353° (N) 3,337 6.4 -35.4°
